Weather History for KCOS - January, 2014

Change the Weather History Date:

Saturday, January 4, 2014

  Actual Average Record
Temperature  
Mean Temperature 23 °F 30 °F  
Max Temperature 43 °F 43 °F 70 °F (2001)
Min Temperature 2 °F 17 °F -18 °F (1959)
Degree Days  
Heating Degree Days 42 35  
Month to date heating degree days 131 140  
Since 1 July heating degree days 2595 2712  
Cooling Degree Days 0 0  
Month to date cooling degree days 0 0  
Year to date cooling degree days 0 0  
Moisture  
Dew Point 14 °F    
Average Humidity 58    
Maximum Humidity 84    
Minimum Humidity 31    
Precipitation  
Precipitation 0.18 in 0.01 in 0.20 in (1913)
Month to date precipitation 0.18 0.04  
Year to date precipitation 0.18 0.04  
Snow  
Snow 3.50 in 0.20 in 3.50 in (2014)
Month to date snowfall 3.5 0.8  
Since 1 July snowfall 10.6 14.3  
Snow Depth 4.00 in    
Sea Level Pressure  
Sea Level Pressure 29.90 in    
Wind  
Wind Speed 12 mph (NNE)    
Max Wind Speed 31 mph    
Max Gust Speed 35 mph    
Visibility 5 miles    
Events Fog , Snow    
T = Trace of Precipitation, MM = Missing Value Source: NWS Daily Summary

Daily Weather History Graph

Daily Weather History Graph

Search for Another Location

Airport or City:

Trip Planner

Search our weather history database for the weather conditions in past years. The results will help you decide how hot, cold, wet, or windy it might be!

Date:

Astronomy

Jan. 04, 2014 Rise Set
Actual Time 7:17 AM MST 4:50 PM MST
Civil Twilight 6:47 AM MST 5:20 PM MST
Nautical Twilight 6:14 AM MST 5:53 PM MST
Astronomical Twilight 5:42 AM MST 6:25 PM MST
Moon 9:26 AM MST (1/4) 9:10 PM MST (1/4)
Length of Visible Light 10h 32m
Length of Day
9h 33m
Waxing Crescent, 16% of the Moon is Illuminated
Jan 4
Waxing Crescent
Jan 7
First Quarter
Jan 15
Full
Jan 23
Last Quarter
Jan 30
New

Hourly Weather History & Observations

Time (MST) Temp. Windchill Dew Point Humidity Pressure Visibility Wind Dir Wind Speed Gust Speed Precip Events Conditions
12:54 AM 39.0 °F - 12.0 °F 33% 29.58 in 10.0 mi Calm Calm - N/A   Partly Cloudy
1:54 AM 39.9 °F 32.5 °F 15.1 °F 36% 29.60 in 10.0 mi NE 12.7 mph 29.9 mph N/A   Mostly Cloudy
2:01 AM 39.9 °F 36.7 °F 15.1 °F 36% 29.71 in 10.0 mi Variable 4.6 mph - N/A   Mostly Cloudy
2:54 AM 28.9 °F 13.5 °F 21.0 °F 72% 29.65 in 10.0 mi ENE 29.9 mph 33.4 mph N/A   Scattered Clouds
3:11 AM 27.0 °F 11.6 °F 24.1 °F 89% 29.73 in 10.0 mi NE 26.5 mph 35.7 mph N/A   Scattered Clouds
3:54 AM 27.0 °F 14.3 °F 21.9 °F 81% 29.71 in 8.0 mi NNE 17.3 mph - 0.00 in   Partly Cloudy
4:54 AM 24.1 °F 13.7 °F 19.0 °F 81% 29.76 in 10.0 mi North 10.4 mph - N/A   Scattered Clouds
5:54 AM 24.1 °F 13.1 °F 19.0 °F 81% 29.78 in 10.0 mi NNE 11.5 mph - N/A   Scattered Clouds
6:51 AM 26.6 °F 16.8 °F 19.4 °F 74% 29.80 in 5.0 mi North 10.4 mph - 0.00 in Snow Light Snow
6:54 AM 26.1 °F 13.6 °F 19.9 °F 78% 29.81 in 5.0 mi North 16.1 mph - 0.00 in Snow Light Snow
7:14 AM 26.1 °F 15.6 °F 19.9 °F 78% 29.82 in 2.0 mi North 11.5 mph - 0.01 in Snow Light Snow
7:30 AM 26.1 °F 18.4 °F 19.9 °F 78% 29.82 in 5.0 mi NNE 6.9 mph - 0.01 in Snow Light Snow
7:54 AM 24.1 °F 12.5 °F 17.1 °F 75% 29.85 in 1.5 mi NE 12.7 mph - 0.01 in Snow Light Snow
8:42 AM 23.0 °F 12.4 °F 18.0 °F 81% 29.87 in 0.8 mi NE 10.4 mph - 0.02 in Snow Light Snow
8:54 AM 21.9 °F 11.7 °F 17.1 °F 82% 29.90 in 0.5 mi NE 9.2 mph - 0.02 in Snow Light Snow
9:54 AM 21.0 °F 9.3 °F 17.1 °F 85% 29.91 in 0.5 mi NE 11.5 mph - 0.04 in Snow Snow
10:00 AM 21.0 °F 8.6 °F 17.1 °F 85% 29.86 in 0.2 mi NE 12.7 mph - 0.00 in Snow Heavy Snow
10:54 AM 21.0 °F 8.1 °F 17.1 °F 85% 29.89 in 0.2 mi ENE 13.8 mph - 0.04 in Fog , Snow Snow
11:10 AM 21.0 °F 8.6 °F 16.0 °F 81% 29.83 in 0.2 mi NE 12.7 mph - 0.00 in Snow Snow
11:54 AM 21.0 °F 10.6 °F 16.0 °F 81% 29.88 in 0.2 mi NE 9.2 mph - 0.03 in Snow Snow
12:49 PM 21.2 °F 6.8 °F 15.8 °F 80% 29.79 in 1.0 mi NE 17.3 mph - 0.02 in Snow Light Snow
12:54 PM 21.0 °F 8.6 °F 14.0 °F 74% 29.89 in 1.0 mi NE 12.7 mph - 0.02 in Snow Light Snow
1:10 PM 21.0 °F 9.3 °F 12.9 °F 71% 29.80 in 1.5 mi NNE 11.5 mph - 0.00 in   Haze
1:40 PM 21.0 °F 7.6 °F 14.0 °F 74% 29.81 in 0.5 mi NNE 15.0 mph - 0.00 in Snow Light Snow
1:54 PM 21.0 °F 9.3 °F 15.1 °F 78% 29.89 in 0.5 mi North 11.5 mph - 0.01 in Snow Light Snow
2:26 PM 19.9 °F 5.2 °F 14.0 °F 78% 29.82 in 0.5 mi NNE 17.3 mph - 0.00 in Snow Light Snow
2:54 PM 19.9 °F 6.2 °F 12.9 °F 74% 29.99 in 2.5 mi NNE 15.0 mph - 0.00 in Snow Light Snow
3:18 PM 19.0 °F 4.5 °F 12.9 °F 77% 29.87 in 0.5 mi North 16.1 mph - 0.00 in Snow Light Snow
3:43 PM 19.0 °F 4.0 °F 12.0 °F 74% 29.87 in 4.0 mi North 17.3 mph - 0.01 in Snow Light Snow
3:52 PM 19.4 °F 6.6 °F 10.4 °F 68% 29.89 in 7.0 mi North 12.7 mph - 0.01 in Snow Light Snow
3:54 PM 19.0 °F 7.5 °F 10.0 °F 68% 30.04 in 7.0 mi North 10.4 mph - 0.01 in Snow Light Snow
4:54 PM 19.0 °F 6.8 °F 9.0 °F 65% 30.09 in 8.0 mi NNW 11.5 mph - 0.00 in Snow Light Snow
5:54 PM 17.1 °F 1.0 °F 8.1 °F 68% 30.12 in 9.0 mi North 18.4 mph - 0.00 in Snow Light Snow
6:54 PM 16.0 °F 4.4 °F 8.1 °F 71% 30.17 in 9.0 mi North 9.2 mph - 0.00 in   Mostly Cloudy
7:54 PM 15.1 °F 1.1 °F 8.1 °F 74% 30.18 in 10.0 mi North 12.7 mph - N/A   Mostly Cloudy
8:54 PM 12.0 °F -2.0 °F 6.1 °F 77% 30.22 in 10.0 mi NNE 11.5 mph - N/A   Scattered Clouds
9:54 PM 10.9 °F 2.9 °F 5.0 °F 77% 30.24 in 10.0 mi South 4.6 mph - N/A   Scattered Clouds
10:54 PM 10.9 °F 2.9 °F 7.0 °F 84% 30.24 in 10.0 mi South 4.6 mph - N/A   Scattered Clouds
11:54 PM 3.0 °F -6.4 °F -0.0 °F 87% 30.26 in 8.0 mi ENE 4.6 mph - N/A   Mostly Cloudy